Flag for Germany Weather past 2 weeks in Mainz, Rhineland-Palatinate, Germany

Now
55 °F

Light rain. Passing clouds.


Feels Like: 55 °F
Forecast: 58 / 76 °F
Wind: 2 mph from North

Location: Wiesbaden Airport

Current Time: Jun 2, 2015 at 9:33:51 AM

Latest Report: Jun 2, 2015 at 8:58 AM


Visibility: N/A

Pressure: 30.03 "Hg

Humidity: 92%

Dew point: 53 °F

Location of MainzLocation

Historic Weather in Mainz — Graph

°F

Mainz temperature yesterday

Maximum temperature yesterday: 63 °F (at 1:58 AM)
Minimum temperature yesterday: 50 °F (at 11:58 PM)
Average temperature yesterday: 57 °F

Past Weeks' High & Low Weather Summary

 TemperatureHumidityPressure
High72 °F (May 18, 2:58 PM)100% (Jun 1, 9:03 AM)30.34 "Hg (Jun 1, 9:03 AM)
Low39 °F (May 28, 2:58 AM)33% (May 18, 2:58 PM)29.67 "Hg (May 19, 1:58 AM)
Average57 °F66%30.03 "Hg
* Reported May 18 8:58 AM — Jun 2 8:00 AM, Mainz, Weather by CustomWeather, © 2015

Note: Actual official high and low records may vary slightly from our data, if they occured in-between our weather recording intervals... More about our weather records

Advertising

Mainz weather history for previous 24 hours

 ConditionsComfort  
Time TempWeatherWind HumidityBarometerVisibility
8:00 AM
Tue, Jun 2
54 °FLight rain. Scattered clouds.2 mph88%30.01 "HgN/A
6:58 AM50 °FScattered clouds.No wind100%30.01 "HgN/A
6:04 AM48 °FMostly cloudy.1 mph94%30.00 "HgN/A
4:58 AM46 °FMostly cloudy.3 mph100%30.01 "HgN/A
3:58 AM46 °FPassing clouds.No wind93%30.03 "HgN/A
3:02 AM46 °FPassing clouds.1 mph100%30.02 "HgN/A
2:58 AM46 °FPassing clouds.3 mph100%30.03 "HgN/A
1:58 AM46 °FPassing clouds.No wind95%30.04 "HgN/A
12:58 AM47 °FClear.3 mph92%30.03 "HgN/A
11:58 PM
Mon, Jun 1
50 °FClear.7 mph88%30.04 "HgN/A
10:58 PM52 °FClear.7 mph88%30.03 "HgN/A
9:58 PM55 °FSunny.6 mph77%30.03 "HgN/A
8:58 PM57 °FSunny.5 mph89%30.01 "HgN/A
7:58 PM57 °FPassing clouds.7 mph88%30.02 "HgN/A
6:58 PM58 °FMostly cloudy.7 mph85%30.03 "HgN/A
5:58 PM59 °FMostly cloudy.7 mph82%30.04 "HgN/A
4:58 PM57 °FMostly cloudy.7 mph94%30.05 "HgN/A
3:58 PM57 °FMostly cloudy.5 mph88%30.05 "HgN/A
2:58 PM58 °FMostly cloudy.No wind80%30.05 "HgN/A
2:03 PM57 °FOvercast.3 mph88%30.04 "HgN/A
1:58 PM57 °FLight rain. Overcast.5 mph88%30.04 "HgN/A
12:58 PM56 °FLight rain. Overcast.5 mph92%30.05 "HgN/A
11:58 AM56 °FLight rain. Overcast.5 mph88%30.03 "HgN/A
10:58 AM57 °FLight rain. Mostly cloudy.6 mph94%30.03 "HgN/A
9:58 AM55 °FLight rain. Broken clouds.6 mph100%30.02 "HgN/A
9:03 AM55 °FLight rain. Broken clouds.5 mph100%30.01 "HgN/A
Weather by CustomWeather, © 2015

See weather overviewHow to use our weather pages